Probability
0 0 0 0 0 0 0 0 0 0 0 0 0 0 0 0 0 0 0 0 0 0 0 0 0 1 2 3 3 2 1 0 0 0 0 0 0 0
0 0 0 0 0 0 0 0 0 0 0 0 0 0 0 0 0 0 0 0 0 0 0 0 0 1 2 3 2 1 0 0 0 0 0 0 0 0
0 0 0 0 0 0 0 0 0 0 0 0 0 0 0 0 0 0 0 0 0 0 0 0 0 1 2 2 1 0 0 0 0 0 0 0 0 0
0 0 0 0 0 0 0 0 0 0 0 0 0 0 0 0 0 0 0 0 0 0 0 0 0 0 1 1 0 0 0 0 0 0 0 0 0 0
0 0 0 0 0 0 0 0 0 0 0 0 0 0 0 0 0 0 0 0 0 0 0 0 0 0 0 0 0 0 0 0 0 0 0 0 0 0
0 0 0 0 0 0 0 0 0 0 0 0 0 0 0 0 0 0 0 0 0 0 0 0 0 0 0 0 0 0 0 0 0 0 0 0 0 0
0 0 0 0 0 0 0 0 0 0 0 0 0 0 0 0 0 0 0 0 0 0 0 0 0 0 0 0 0 0 0 0 0 0 0 0 0 0
0 0 0 0 0 0 0 0 0 0 0 0 0 0 0 0 0 0 0 0 0 0 0 0 0 0 0 0 0 0 0 0 0 0 0 0 0 0
0 0 0 0 0 0 0 0 0 0 0 0 0 0 0 0 0 0 0 0 0 0 0 0 0 0 0 0 0 0 0 0 0 0 0 0 0 0
0 0 0 0 0 0 0 0 0 0 0 0 0 0 0 0 0 0 0 0 0 0 0 0 0 0 0 0 0 0 0 0 0 0 0 0 0 0
0 0 0 0 0 0 0 0 0 0 0 0 0 0 0 0 0 0 0 0 0 0 0 0 0 0 0 0 0 0 0 0 0 0 0 0 0 0
0 0 0 0 0 0 0 0 0 0 0 0 0 0 0 0 0 0 0 0 0 0 0 0 0 0 0 0 0 0 0 0 0 0 0 0 0 0
0 0 0 0 0 0 0 0 0 0 0 0 0 0 0 0 0 0 0 0 0 0 0 0 0 0 0 0 0 0 0 0 0 0 0 0 0 0
0 0 0 0 0 0 0 0 0 0 0 0 0 0 0 0 0 0 0 0 0 0 0 0 0 0 0 0 0 0 0 0 0 0 0 0 0 0
0 0 0 0 0 0 0 0 0 0 0 0 0 0 0 0 0 0 0 0 0 0 0 0 0 0 0 0 0 0 0 0 0 0 0 0 0 0
0 0 0 0 0 0 0 0 0 0 0 0 0 0 0 0 0 0 0 0 0 0 0 0 0 0 0 0 0 0 0 0 0 0 0 0 0 0
0 0 0 0 0 0 0 0 0 0 0 0 0 0 0 0 0 0 0 0 0 0 0 0 0 0 0 0 0 0 0 0 0 0 0 0 0 0
0 0 0 0 0 0 0 0 0 0 0 0 0 0 0 0 0 0 0 0 0 0 0 0 0 0 0 0 0 0 0 0 0 0 0 0 0 0
0 0 0 0 0 0 0 0 0 0 0 0 0 0 0 0 0 0 0 0 0 0 0 0 0 0 0 0 0 0 0 0 0 0 0 0 0 0
0 0 0 0 0 0 0 0 0 0 0 0 0 0 0 0 0 0 0 0 0 0 0 0 0 0 0 0 0 0 0 0 0 0 0 0 0 0
0 0 0 0 0 0 0 0 0 0 0 0 0 0 0 0 0 0 0 0 0 0 0 0 0 0 0 0 0 0 0 0 0 0 0 0 0 0
0 0 0 0 0 0 0 0 0 0 0 0 0 0 0 0 0 0 0 0 0 0 0 0 0 0 0 0 0 0 0 0 0 0 0 0 0 0
0 0 0 0 0 0 0 0 0 0 0 0 0 0 0 0 0 0 0 0 0 0 0 0 0 0 0 0 0 0 0 0 0 0 0 0 0 0
Wind_Speed
5 5 4 4 3 3 3 3 4 6 7 4 3 3 3 3 5 4 4 6 8 8 8 7 6 6 5 4 4 4 4 5 6 6 6 6 6 5
5 6 5 4 4 3 4 4 4 5 7 4 4 3 4 4 5 4 4 7 7 8 7 6 6 5 5 5 4 5 4 5 6 6 6 6 6 6
6 6 7 5 5 4 4 4 4 4 6 5 3 3 4 5 4 3 3 3 4 6 6 6 5 6 6 5 5 5 5 5 5 6 7 7 7 7
7 7 7 6 6 5 5 5 5 5 5 7 5 4 4 5 4 4 4 3 3 5 6 6 6 6 6 6 6 6 6 6 5 5 6 7 7 7
7 7 7 7 7 6 6 6 5 5 4 5 5 4 3 3 3 3 3 3 3 4 6 6 6 6 6 6 6 6 6 6 6 5 6 6 7 8
8 8 8 8 8 8 7 7 6 5 5 5 5 4 4 3 3 3 3 3 3 2 4 4 5 6 7 6 6 6 6 6 7 6 6 6 6 7
8 8 8 9 11 9 8 7 7 6 5 5 5 4 4 3 4 3 4 2 3 2 2 2 2 2 3 5 6 6 6 7 7 7 7 7 6 7
8 8 8 9 10 12 13 12 10 9 7 6 6 7 7 5 4 4 3 3 4 3 3 3 2 3 3 3 6 7 7 7 7 7 7 7 7 7
8 7 7 7 9 7 9 12 12 13 13 9 9 9 7 7 6 6 6 5 5 3 2 4 2 4 3 4 7 8 8 7 7 7 7 7 7 7
7 7 7 7 7 8 7 8 8 9 10 9 8 9 8 7 8 7 6 4 3 3 3 4 3 3 3 3 7 9 8 7 7 7 7 7 7 6
7 7 7 7 10 12 9 8 8 8 10 12 12 11 11 11 8 5 5 4 5 3 3 3 3 2 2 3 4 7 7 6 7 7 7 7 6 5
7 7 9 10 11 12 8 7 8 7 6 7 7 8 8 8 10 8 7 6 4 4 4 3 3 2 2 2 2 3 4 5 6 6 6 6 6 3
6 5 6 10 11 11 10 7 9 8 6 5 5 5 4 5 6 6 6 6 6 4 4 4 3 2 3 2 2 2 2 2 2 3 5 6 6 5
6 5 6 10 10 10 8 8 10 8 4 4 4 4 4 4 4 4 5 4 5 5 5 5 4 4 3 3 2 1 1 1 2 2 2 3 4 6
6 9 10 10 9 7 8 9 7 4 4 4 5 4 4 4 3 3 3 2 3 3 4 4 4 4 4 4 3 2 1 1 2 2 2 2 2 2
6 7 9 8 7 7 7 5 4 4 4 4 4 3 3 3 3 3 3 3 2 2 2 3 4 5 4 4 4 3 2 2 2 2 1 1 1 2
6 3 3 3 3 3 3 3 3 3 4 3 3 3 3 3 3 3 3 2 3 3 2 1 1 1 2 3 3 3 3 2 2 2 2 1 2 2
6 3 3 3 4 4 4 3 3 3 3 3 3 3 3 3 3 2 2 3 3 3 3 3 3 2 1 1 2 4 3 2 2 2 2 2 3 2
4 4 4 4 4 4 4 4 4 4 3 3 3 3 3 3 3 3 3 2 2 2 2 3 4 4 4 3 2 3 4 3 2 1 2 2 3 3
4 4 4 4 5 4 4 4 4 4 3 3 3 3 3 3 3 3 3 3 3 2 2 2 3 4 5 4 2 2 3 4 3 3 2 1 1 2
4 4 5 5 5 5 4 4 4 4 4 3 3 3 3 3 3 3 3 4 3 3 3 3 3 3 1 2 2 1 1 2 3 3 3 2 1 1
4 5 5 5 5 5 4 4 4 4 3 3 3 3 2 2 3 3 3 4 3 3 3 2 1 2 2 3 3 2 1 0 0 0 2 3 3 4
5 5 5 5 5 4 4 4 4 4 3 3 3 2 2 2 2 2 3 3 3 3 3 2 2 1 2 3 3 2 2 1 0 0 0 1 1 2
Wind_Direction
255 249 250 251 251 253 251 239 243 265 268 264 265 266 263 255 261 258 261 263 263 261 261 262 261 259 254 249 245 242 239 241 231 221 218 219 228 238
261 252 251 252 251 250 243 249 251 253 264 260 262 276 276 275 268 264 260 271 266 258 252 248 246 248 244 237 232 230 227 229 224 221 223 227 231 237
268 257 252 250 247 246 245 245 251 253 263 276 276 278 265 267 269 258 259 255 257 251 247 243 242 243 241 236 235 230 223 222 225 228 228 232 235 234
269 264 261 255 248 245 242 243 245 249 252 269 277 269 259 255 254 249 259 258 251 253 250 246 242 244 240 236 234 231 225 224 225 232 237 239 238 237
262 260 261 256 251 246 242 242 244 253 252 253 266 270 266 258 259 260 253 253 253 252 246 240 237 243 243 238 233 231 225 223 224 232 242 245 242 240
260 258 255 248 250 247 244 240 240 243 248 248 257 262 264 256 239 238 248 242 247 258 250 245 243 246 243 240 234 229 228 225 225 230 235 238 239 240
266 261 256 254 255 255 252 237 231 235 240 246 254 258 254 243 236 235 241 244 251 239 232 243 239 238 238 236 234 230 232 230 226 227 231 232 234 238
274 270 263 261 259 263 263 257 246 236 233 238 245 246 245 240 240 239 239 234 251 215 208 245 226 239 240 230 237 236 234 232 230 228 232 232 232 235
274 271 272 268 268 256 262 261 257 253 247 240 238 241 242 234 227 235 235 238 243 217 207 250 234 242 246 244 240 239 236 231 230 229 231 236 235 239
276 273 268 265 259 257 253 252 249 249 247 241 236 238 240 232 226 232 236 252 267 233 209 240 234 240 252 242 240 235 234 233 233 233 232 237 236 234
282 278 269 264 265 266 258 253 254 255 261 256 251 250 248 245 237 223 220 225 246 242 209 215 220 241 253 249 237 228 228 232 234 233 230 231 229 229
286 279 275 273 273 271 259 250 250 251 252 257 255 254 247 240 239 226 214 219 232 237 204 192 200 190 236 239 222 218 215 221 226 229 226 222 224 218
288 283 278 281 278 275 273 259 257 259 249 248 250 248 245 235 229 226 217 216 223 233 197 180 193 203 212 238 256 225 204 203 212 225 227 224 230 221
288 284 281 284 283 279 276 268 266 266 252 244 244 243 243 241 234 226 227 232 237 237 210 196 200 202 200 218 238 223 200 205 197 213 224 227 238 235
293 291 292 290 288 283 282 282 275 261 246 244 243 245 240 238 234 223 222 227 245 248 231 222 205 194 197 211 211 209 222 242 205 199 212 222 228 224
299 295 295 292 290 288 284 284 274 256 249 247 248 249 248 235 229 224 224 213 225 249 247 220 200 188 202 213 199 206 205 202 199 211 213 234 246 231
303 301 301 298 293 290 287 283 283 277 264 256 248 247 247 245 241 228 228 225 223 221 218 179 139 142 183 192 193 202 203 213 210 208 200 229 249 233
316 307 302 297 291 293 290 288 285 278 273 265 252 243 243 240 242 236 222 211 209 210 205 179 156 145 121 319 219 199 202 213 209 201 196 206 249 246
318 304 297 293 289 284 283 282 279 277 272 266 256 245 240 238 231 222 214 206 206 209 206 187 184 182 193 220 236 204 196 197 190 212 219 214 234 245
317 306 301 297 292 285 281 281 282 285 278 267 259 245 231 226 225 218 209 201 200 200 205 197 199 200 202 199 199 223 208 195 190 200 218 230 246 257
312 306 301 298 295 293 288 281 278 278 281 275 266 251 234 225 223 216 209 208 200 190 200 215 222 202 150 126 140 226 232 212 207 200 193 186 205 229
303 301 299 295 293 289 289 290 289 286 284 278 273 265 251 236 228 218 207 198 194 191 202 209 177 165 160 169 180 193 204 290 244 229 215 198 187 199
301 299 296 295 291 289 289 290 291 290 284 277 278 276 264 252 243 224 208 197 187 183 180 179 172 155 164 166 169 174 177 192 181 65 311 305 248 232